SCP
0 0 0 0 0 0 0 0 0 0 0 0 0 0 0 0 0 0 0 0 0 0 0 0 1 1 0 0 0 0 0 0 0 0 0 0 0 0 0 0 0 0 0
0 0 0 0 0 0 0 0 0 0 0 0 0 0 0 0 0 0 0 0 0 0 0 0 0 1 1 0 0 0 0 0 0 0 0 0 0 0 0 0 0 0 0
0 0 0 0 0 -0 -0 -0 0 0 0 0 0 0 0 0 0 0 0 0 0 0 0 0 0 0 1 1 1 0 0 0 0 0 0 0 0 0 0 0 0 0 0
0 0 0 0 0 0 -0 0 0 0 0 0 0 0 0 0 0 0 0 0 0 0 0 0 0 0 0 0 1 1 0 0 0 0 0 0 0 0 0 0 0 0 0
-0 -0 -0 0 0 0 0 0 0 0 0 0 0 0 0 0 0 0 0 0 0 0 0 0 0 0 0 0 0 1 0 0 0 0 0 0 0 0 0 0 0 0 0
0 0 0 0 0 0 0 0 0 0 0 0 0 0 0 0 0 0 0 0 0 0 0 0 0 0 0 0 0 0 0 0 0 0 0 0 0 0 0 0 0 0 0
-0 0 0 0 0 0 0 0 0 0 0 0 0 0 0 0 0 0 0 0 0 0 0 0 0 0 0 0 0 0 0 0 0 0 0 0 0 0 0 0 0 0 0
-0 -0 -0 -0 -0 0 0 0 0 0 0 0 0 0 0 0 0 0 0 0 0 0 0 0 0 0 0 0 0 0 0 0 0 0 0 0 0 0 0 0 0 0 0
-0 0 0 0 -0 -0 0 0 -0 0 0 0 0 0 0 0 0 0 0 0 0 0 0 0 0 0 0 0 0 0 0 0 0 0 0 0 0 0 0 0 0 0 0
-0 -0 0 0 0 0 0 0 0 -0 0 0 0 0 0 0 0 0 0 0 0 0 0 0 0 0 0 0 0 0 0 0 0 0 0 0 0 0 0 0 0 0 0
0 -0 0 0 0 0 -0 0 0 -0 0 0 0 0 -0 0 0 0 0 0 0 0 0 0 0 0 0 0 0 0 0 0 0 0 0 0 0 0 0 0 0 0 0
0 0 0 0 0 0 0 -0 0 -0 -0 -0 -0 -0 0 0 -0 0 0 0 0 0 0 0 0 0 0 0 0 0 0 0 0 0 0 0 0 0 0 0 0 0 0
0 0 0 0 0 0 0 0 -0 0 0 0 0 0 -0 -0 -0 0 0 0 0 0 0 0 0 0 0 0 0 0 0 0 0 0 0 0 0 0 0 0 0 0 0
0 0 0 0 0 0 0 0 0 0 0 0 0 -0 -0 -0 -0 -0 -0 -0 -0 -0 -0 0 0 0 0 0 0 0 0 0 0 0 0 0 0 0 0 0 0 0 0
0 0 0 0 0 0 0 0 0 0 0 0 0 0 -0 -0 -0 -0 -0 -0 -0 -0 -0 -0 -0 0 0 0 0 0 0 0 0 0 0 0 0 0 0 0 0 0 0
0 0 0 0 0 0 0 0 0 0 0 0 0 0 0 0 0 0 -0 -0 -0 -0 -0 -0 -0 -0 -0 0 0 0 0 0 0 0 0 0 0 0 0 0 0 0 0
0 0 0 0 0 0 0 0 0 0 0 0 0 -0 -0 0 0 0 0 0 -0 -0 -0 -0 -0 -0 -0 -0 -0 -0 0 0 0 0 0 0 0 0 0 0 0 0 0
0 0 0 0 0 0 0 0 0 0 0 0 0 -0 -0 0 0 -0 -0 -0 0 0 0 0 0 -0 -0 -0 -0 0 0 0 0 0 0 0 0 0 0 0 0 0 0
0 0 0 0 0 0 0 0 0 0 0 0 0 0 0 0 0 0 -0 -0 -0 0 0 0 0 0 0 -0 -0 0 0 0 0 -0 0 0 0 0 0 0 0 0 0
0 0 0 0 0 0 0 0 0 0 0 0 0 0 0 0 0 0 0 0 0 0 0 0 0 0 0 0 0 0 0 0 0 0 -0 -0 0 0 0 0 0 0 0
-0 0 0 0 0 0 0 0 0 0 0 0 0 0 0 0 0 0 0 0 0 0 0 0 0 0 0 0 0 0 0 0 0 0 -0 -0 -0 -0 -0 0 0 0 0
-0 -0 0 0 0 0 0 0 0 0 0 0 0 0 0 0 0 0 0 0 0 0 0 0 0 0 0 0 0 0 -0 -0 0 -0 0 0 -0 0 0 0 0 0 0
0 0 0 0 0 0 0 0 0 0 0 0 0 0 0 0 0 0 0 0 0 0 0 0 0 0 0 0 0 0 0 0 0 0 0 0 0 0 0 0 0 0 0
0 0 0 0 0 0 0 0 0 0 0 0 0 0 0 0 0 0 0 0 0 0 0 0 0 0 0 0 0 0 0 0 0 0 0 0 0 0 0 0 0 0 0
0 0 0 0 0 0 0 0 0 0 0 0 0 0 0 0 0 0 0 0 0 0 0 0 0 0 0 0 0 0 0 0 0 0 0 0 0 0 0 0 0 0 0
0 0 0 0 0 0 0 0 0 0 0 0 0 0 0 0 0 0 0 0 0 0 0 0 0 0 0 0 0 0 0 0 0 0 0 0 0 0 0 0 0 0 0
Wind_Speed_500mb
10 9 10 15 18 22 27 33 43 47 57 66 74 72 70 69 71 74 75 77 80 76 71 67 76 76 78 78 79 75 72 67 61 55 58 58 58 61 63 61 60 58 56
24 27 30 33 39 43 48 55 61 66 73 83 80 81 80 78 75 72 75 77 80 81 80 72 71 78 80 80 81 81 79 75 70 70 66 56 65 72 70 70 69 69 63
51 51 50 54 60 66 70 75 79 84 87 80 78 81 83 85 85 79 74 75 76 81 85 82 75 73 73 82 80 85 81 81 81 80 62 29 37 44 66 79 77 75 71
62 65 69 74 77 80 82 84 82 77 66 59 66 73 86 89 89 83 74 70 71 72 77 87 84 75 75 79 81 81 89 86 89 87 91 79 48 34 29 46 59 72 74
60 67 71 70 68 67 72 61 53 51 48 48 56 64 78 89 87 84 76 70 68 69 67 68 81 88 79 76 77 77 88 85 89 90 89 96 87 71 56 48 49 51 57
59 60 58 57 57 54 58 56 50 50 47 50 56 61 66 75 81 82 77 72 67 66 69 62 62 72 88 85 75 75 80 84 87 90 101 90 88 94 80 68 72 60 58
55 60 61 66 64 60 59 58 58 59 53 51 52 53 60 67 76 76 72 72 68 65 64 69 60 63 65 76 85 77 73 77 79 81 93 91 96 99 91 91 81 77 71
46 49 49 50 52 54 53 53 55 64 60 47 45 46 50 53 58 65 69 73 71 65 55 56 69 59 62 68 64 70 78 80 77 79 81 85 95 97 89 92 84 74 79
47 53 56 49 50 53 51 47 49 50 48 39 36 39 41 44 51 60 64 64 62 58 50 49 51 58 67 64 63 67 68 67 68 72 79 79 81 83 83 90 91 78 56
54 57 56 49 47 50 47 43 39 40 38 31 31 30 33 35 36 39 42 43 48 50 50 44 47 47 50 46 57 60 58 60 63 66 72 79 78 80 74 81 86 81 87
53 54 55 54 53 51 49 44 36 28 28 29 25 29 30 25 25 27 29 33 35 38 43 44 42 44 43 48 50 45 41 42 48 55 64 67 73 74 78 78 86 86 81
45 49 51 54 56 54 55 54 48 32 15 19 19 21 17 16 18 18 15 15 19 26 35 44 47 48 51 53 58 59 55 54 53 55 49 57 60 70 73 71 72 75 81
39 45 49 52 54 55 59 61 58 36 11 3 12 14 12 15 18 15 12 12 15 17 24 32 44 52 52 54 55 54 54 54 56 58 55 58 57 64 70 71 71 62 69
33 40 44 49 52 55 58 62 54 38 19 6 12 5 8 16 14 17 17 15 14 16 18 22 27 34 40 46 49 52 54 54 51 52 56 60 60 62 61 65 67 63 67
29 34 40 46 49 52 56 60 53 41 27 15 2 4 10 11 16 21 20 17 18 20 20 22 27 31 36 39 43 46 45 45 46 49 48 53 59 59 60 59 61 62 61
26 30 33 39 44 47 48 50 53 41 29 20 12 5 9 9 6 7 10 11 16 18 22 25 26 29 31 35 37 41 48 51 47 45 43 47 48 48 52 58 60 42 38
25 27 29 32 36 39 41 40 42 37 31 24 19 17 14 11 9 10 12 11 12 15 17 18 22 29 34 39 41 42 40 40 40 41 41 39 37 37 32 33 37 40 43
22 23 25 27 30 31 33 32 28 30 28 24 22 19 20 19 15 14 14 15 15 16 18 21 24 27 31 38 39 42 44 42 39 37 38 37 37 39 42 41 39 41 46
22 20 23 25 26 27 25 26 23 20 16 16 20 24 28 27 22 17 15 14 12 16 18 21 23 23 16 12 15 10 20 32 37 33 32 32 35 41 33 35 39 41 40
21 20 21 22 23 24 22 22 21 18 15 15 16 19 23 23 22 19 15 12 12 10 8 10 14 12 8 10 12 12 18 10 18 22 24 30 27 27 35 28 27 22 21
24 24 24 23 22 21 20 20 20 19 16 14 14 15 15 15 14 12 11 11 11 15 14 7 1 4 3 8 8 8 4 13 20 19 18 13 12 11 10 12 13 16 21
28 28 29 27 25 24 22 21 21 20 19 17 15 15 15 14 13 11 9 7 5 5 5 4 4 4 5 5 4 3 3 3 5 6 7 6 5 4 6 8 11 14 17
32 32 34 32 30 29 27 25 24 24 22 20 18 17 16 15 15 14 13 12 12 11 10 7 5 3 0 1 1 2 2 1 3 2 3 5 4 4 5 8 9 9 10
37 34 38 39 35 32 32 29 29 28 28 26 24 22 20 19 18 16 15 14 13 13 12 10 7 5 3 2 2 3 5 5 5 8 8 8 8 8 9 7 7 7 9
40 40 42 42 38 34 36 34 33 32 31 32 31 29 27 25 23 21 18 16 15 15 13 11 10 8 7 5 2 2 4 5 7 7 9 10 11 11 12 13 15 15 14
46 47 46 44 40 38 39 39 38 37 37 37 35 34 33 31 28 25 24 23 20 18 16 12 11 10 9 9 7 5 6 9 12 13 14 13 14 14 15 15 15 17 16
Wind_Direction_500mb
3 305 273 253 260 271 269 267 277 282 288 292 291 286 281 278 271 259 253 246 242 242 244 251 253 249 248 247 248 244 241 241 244 241 245 244 245 246 248 252 254 255 257
325 315 304 295 288 284 290 292 287 282 283 287 281 278 279 277 274 269 258 252 246 242 243 244 251 255 253 251 247 247 243 240 237 231 235 242 246 247 245 248 249 253 255
335 324 307 298 293 290 287 286 282 280 281 279 272 269 269 269 270 269 266 257 252 246 241 242 244 251 253 254 253 251 246 242 239 232 228 222 233 251 252 248 248 250 252
325 318 310 302 298 294 291 289 285 279 274 274 274 270 265 266 266 268 269 264 258 251 245 241 241 246 251 249 254 252 251 246 243 240 233 233 240 235 253 253 252 252 254
328 324 317 312 307 305 302 294 284 274 269 272 277 278 269 262 263 266 270 266 259 253 251 245 243 242 246 252 250 251 255 256 251 247 244 227 234 242 247 263 258 253 256
337 336 333 329 322 317 310 304 294 285 284 278 275 274 270 266 263 262 265 268 265 255 247 247 246 244 244 247 254 255 255 258 258 258 251 248 233 238 240 247 257 260 261
349 347 346 342 332 325 314 305 297 291 285 275 275 275 273 266 262 261 263 266 265 260 250 241 244 247 251 249 249 254 258 257 258 260 258 253 247 253 248 248 248 260 263
349 347 345 340 337 329 322 312 296 287 286 277 276 276 274 266 257 257 261 265 265 262 255 244 239 243 248 250 254 254 255 257 259 260 259 260 256 256 245 248 250 245 256
352 350 347 349 344 338 332 324 309 292 282 279 278 273 272 265 265 261 260 261 262 262 253 243 241 244 247 248 254 257 258 260 260 258 257 256 255 252 263 253 248 241 252
352 353 352 352 351 347 342 333 318 299 273 273 273 269 266 270 273 269 264 264 262 256 248 245 241 249 246 251 252 255 258 260 261 261 261 262 260 261 258 260 256 260 259
345 346 347 355 357 360 356 352 345 323 272 263 264 257 267 277 287 278 274 266 261 253 246 238 242 248 250 254 256 259 261 266 268 266 260 264 262 262 258 259 259 257 262
335 341 346 354 358 359 5 3 356 350 302 268 263 272 283 285 292 292 301 293 273 254 247 238 237 243 247 250 255 261 265 267 269 272 275 271 265 258 257 265 254 261 254
335 337 344 351 355 2 5 5 1 354 356 253 243 268 259 276 286 295 301 291 284 269 252 246 244 247 251 255 258 261 263 265 266 266 266 272 278 265 257 256 258 260 261
328 331 339 347 351 358 4 5 7 14 31 135 95 232 290 301 291 287 283 282 282 266 254 251 255 256 257 259 260 261 262 263 267 268 267 263 267 271 263 251 256 262 266
318 327 338 343 349 355 1 8 16 25 49 66 22 326 342 309 279 275 278 283 276 271 267 266 268 266 268 265 267 262 261 260 264 266 271 271 268 264 265 264 261 260 266
310 324 335 339 346 353 0 6 14 27 36 52 60 348 319 303 326 284 273 274 276 273 270 269 266 267 270 271 273 272 263 259 264 267 267 267 258 261 265 259 263 247 261
306 320 330 338 343 348 356 6 17 19 26 37 37 25 20 358 319 301 295 280 269 272 265 265 265 266 268 270 271 266 260 259 261 260 261 269 270 260 260 263 266 269 273
294 310 321 333 340 345 350 0 11 27 23 20 20 5 356 348 338 330 319 306 293 281 266 262 261 264 270 279 283 269 254 253 251 248 248 250 255 256 258 259 267 266 269
287 302 313 325 332 341 348 355 356 10 36 37 27 31 38 43 46 37 20 3 330 310 295 282 278 283 282 278 329 325 254 255 257 255 263 251 243 253 242 255 253 251 267
276 291 299 311 322 332 341 347 348 352 353 6 15 18 20 29 40 47 49 29 11 17 4 304 285 272 258 297 314 310 325 257 227 213 214 228 223 222 250 232 229 226 215
277 283 289 294 305 314 327 333 336 337 342 347 342 340 345 357 9 20 28 38 27 27 32 46 121 250 183 117 112 100 188 201 188 174 171 176 209 213 212 227 241 241 254
277 277 281 286 291 298 305 317 324 326 327 330 331 325 319 317 319 320 319 320 320 329 334 2 27 55 58 59 78 75 98 145 198 202 214 231 271 267 258 249 259 274 281
276 271 275 280 281 286 293 302 313 316 316 316 317 314 312 309 304 299 297 292 287 283 283 292 303 303 332 33 144 121 71 324 322 331 314 309 314 300 267 258 260 269 277
275 274 270 274 279 280 286 295 300 305 309 311 311 312 312 310 305 300 294 286 282 279 277 278 281 291 298 299 334 360 356 354 337 334 344 343 344 341 336 336 328 318 310
273 270 271 275 279 278 281 285 288 292 299 303 305 305 305 305 303 302 300 295 289 281 278 274 271 269 274 280 292 329 338 338 340 345 342 343 341 338 336 331 326 322 321
272 270 272 275 280 278 278 280 282 285 289 291 296 298 297 296 297 295 295 295 293 292 288 278 272 272 274 278 287 316 335 330 329 327 320 319 320 320 319 318 314 310 310
Wind_Speed_850mb
10 9 10 15 18 22 27 33 43 47 57 66 74 72 70 69 71 74 75 77 80 76 71 67 76 76 78 78 79 75 72 67 61 55 58 58 58 61 63 61 60 58 56
24 27 30 33 39 43 48 55 61 66 73 83 80 81 80 78 75 72 75 77 80 81 80 72 71 78 80 80 81 81 79 75 70 70 66 56 65 72 70 70 69 69 63
51 51 50 54 60 66 70 75 79 84 87 80 78 81 83 85 85 79 74 75 76 81 85 82 75 73 73 82 80 85 81 81 81 80 62 29 37 44 66 79 77 75 71
62 65 69 74 77 80 82 84 82 77 66 59 66 73 86 89 89 83 74 70 71 72 77 87 84 75 75 79 81 81 89 86 89 87 91 79 48 34 29 46 59 72 74
60 67 71 70 68 67 72 61 53 51 48 48 56 64 78 89 87 84 76 70 68 69 67 68 81 88 79 76 77 77 88 85 89 90 89 96 87 71 56 48 49 51 57
59 60 58 57 57 54 58 56 50 50 47 50 56 61 66 75 81 82 77 72 67 66 69 62 62 72 88 85 75 75 80 84 87 90 101 90 88 94 80 68 72 60 58
55 60 61 66 64 60 59 58 58 59 53 51 52 53 60 67 76 76 72 72 68 65 64 69 60 63 65 76 85 77 73 77 79 81 93 91 96 99 91 91 81 77 71
46 49 49 50 52 54 53 53 55 64 60 47 45 46 50 53 58 65 69 73 71 65 55 56 69 59 62 68 64 70 78 80 77 79 81 85 95 97 89 92 84 74 79
47 53 56 49 50 53 51 47 49 50 48 39 36 39 41 44 51 60 64 64 62 58 50 49 51 58 67 64 63 67 68 67 68 72 79 79 81 83 83 90 91 78 56
54 57 56 49 47 50 47 43 39 40 38 31 31 30 33 35 36 39 42 43 48 50 50 44 47 47 50 46 57 60 58 60 63 66 72 79 78 80 74 81 86 81 87
53 54 55 54 53 51 49 44 36 28 28 29 25 29 30 25 25 27 29 33 35 38 43 44 42 44 43 48 50 45 41 42 48 55 64 67 73 74 78 78 86 86 81
45 49 51 54 56 54 55 54 48 32 15 19 19 21 17 16 18 18 15 15 19 26 35 44 47 48 51 53 58 59 55 54 53 55 49 57 60 70 73 71 72 75 81
39 45 49 52 54 55 59 61 58 36 11 3 12 14 12 15 18 15 12 12 15 17 24 32 44 52 52 54 55 54 54 54 56 58 55 58 57 64 70 71 71 62 69
33 40 44 49 52 55 58 62 54 38 19 6 12 5 8 16 14 17 17 15 14 16 18 22 27 34 40 46 49 52 54 54 51 52 56 60 60 62 61 65 67 63 67
29 34 40 46 49 52 56 60 53 41 27 15 2 4 10 11 16 21 20 17 18 20 20 22 27 31 36 39 43 46 45 45 46 49 48 53 59 59 60 59 61 62 61
26 30 33 39 44 47 48 50 53 41 29 20 12 5 9 9 6 7 10 11 16 18 22 25 26 29 31 35 37 41 48 51 47 45 43 47 48 48 52 58 60 42 38
25 27 29 32 36 39 41 40 42 37 31 24 19 17 14 11 9 10 12 11 12 15 17 18 22 29 34 39 41 42 40 40 40 41 41 39 37 37 32 33 37 40 43
22 23 25 27 30 31 33 32 28 30 28 24 22 19 20 19 15 14 14 15 15 16 18 21 24 27 31 38 39 42 44 42 39 37 38 37 37 39 42 41 39 41 46
22 20 23 25 26 27 25 26 23 20 16 16 20 24 28 27 22 17 15 14 12 16 18 21 23 23 16 12 15 10 20 32 37 33 32 32 35 41 33 35 39 41 40
21 20 21 22 23 24 22 22 21 18 15 15 16 19 23 23 22 19 15 12 12 10 8 10 14 12 8 10 12 12 18 10 18 22 24 30 27 27 35 28 27 22 21
24 24 24 23 22 21 20 20 20 19 16 14 14 15 15 15 14 12 11 11 11 15 14 7 1 4 3 8 8 8 4 13 20 19 18 13 12 11 10 12 13 16 21
28 28 29 27 25 24 22 21 21 20 19 17 15 15 15 14 13 11 9 7 5 5 5 4 4 4 5 5 4 3 3 3 5 6 7 6 5 4 6 8 11 14 17
32 32 34 32 30 29 27 25 24 24 22 20 18 17 16 15 15 14 13 12 12 11 10 7 5 3 0 1 1 2 2 1 3 2 3 5 4 4 5 8 9 9 10
37 34 38 39 35 32 32 29 29 28 28 26 24 22 20 19 18 16 15 14 13 13 12 10 7 5 3 2 2 3 5 5 5 8 8 8 8 8 9 7 7 7 9
40 40 42 42 38 34 36 34 33 32 31 32 31 29 27 25 23 21 18 16 15 15 13 11 10 8 7 5 2 2 4 5 7 7 9 10 11 11 12 13 15 15 14
46 47 46 44 40 38 39 39 38 37 37 37 35 34 33 31 28 25 24 23 20 18 16 12 11 10 9 9 7 5 6 9 12 13 14 13 14 14 15 15 15 17 16
Wind_Direction_850mb
3 305 273 253 260 271 269 267 277 282 288 292 291 286 281 278 271 259 253 246 242 242 244 251 253 249 248 247 248 244 241 241 244 241 245 244 245 246 248 252 254 255 257
325 315 304 295 288 284 290 292 287 282 283 287 281 278 279 277 274 269 258 252 246 242 243 244 251 255 253 251 247 247 243 240 237 231 235 242 246 247 245 248 249 253 255
335 324 307 298 293 290 287 286 282 280 281 279 272 269 269 269 270 269 266 257 252 246 241 242 244 251 253 254 253 251 246 242 239 232 228 222 233 251 252 248 248 250 252
325 318 310 302 298 294 291 289 285 279 274 274 274 270 265 266 266 268 269 264 258 251 245 241 241 246 251 249 254 252 251 246 243 240 233 233 240 235 253 253 252 252 254
328 324 317 312 307 305 302 294 284 274 269 272 277 278 269 262 263 266 270 266 259 253 251 245 243 242 246 252 250 251 255 256 251 247 244 227 234 242 247 263 258 253 256
337 336 333 329 322 317 310 304 294 285 284 278 275 274 270 266 263 262 265 268 265 255 247 247 246 244 244 247 254 255 255 258 258 258 251 248 233 238 240 247 257 260 261
349 347 346 342 332 325 314 305 297 291 285 275 275 275 273 266 262 261 263 266 265 260 250 241 244 247 251 249 249 254 258 257 258 260 258 253 247 253 248 248 248 260 263
349 347 345 340 337 329 322 312 296 287 286 277 276 276 274 266 257 257 261 265 265 262 255 244 239 243 248 250 254 254 255 257 259 260 259 260 256 256 245 248 250 245 256
352 350 347 349 344 338 332 324 309 292 282 279 278 273 272 265 265 261 260 261 262 262 253 243 241 244 247 248 254 257 258 260 260 258 257 256 255 252 263 253 248 241 252
352 353 352 352 351 347 342 333 318 299 273 273 273 269 266 270 273 269 264 264 262 256 248 245 241 249 246 251 252 255 258 260 261 261 261 262 260 261 258 260 256 260 259
345 346 347 355 357 360 356 352 345 323 272 263 264 257 267 277 287 278 274 266 261 253 246 238 242 248 250 254 256 259 261 266 268 266 260 264 262 262 258 259 259 257 262
335 341 346 354 358 359 5 3 356 350 302 268 263 272 283 285 292 292 301 293 273 254 247 238 237 243 247 250 255 261 265 267 269 272 275 271 265 258 257 265 254 261 254
335 337 344 351 355 2 5 5 1 354 356 253 243 268 259 276 286 295 301 291 284 269 252 246 244 247 251 255 258 261 263 265 266 266 266 272 278 265 257 256 258 260 261
328 331 339 347 351 358 4 5 7 14 31 135 95 232 290 301 291 287 283 282 282 266 254 251 255 256 257 259 260 261 262 263 267 268 267 263 267 271 263 251 256 262 266
318 327 338 343 349 355 1 8 16 25 49 66 22 326 342 309 279 275 278 283 276 271 267 266 268 266 268 265 267 262 261 260 264 266 271 271 268 264 265 264 261 260 266
310 324 335 339 346 353 0 6 14 27 36 52 60 348 319 303 326 284 273 274 276 273 270 269 266 267 270 271 273 272 263 259 264 267 267 267 258 261 265 259 263 247 261
306 320 330 338 343 348 356 6 17 19 26 37 37 25 20 358 319 301 295 280 269 272 265 265 265 266 268 270 271 266 260 259 261 260 261 269 270 260 260 263 266 269 273
294 310 321 333 340 345 350 0 11 27 23 20 20 5 356 348 338 330 319 306 293 281 266 262 261 264 270 279 283 269 254 253 251 248 248 250 255 256 258 259 267 266 269
287 302 313 325 332 341 348 355 356 10 36 37 27 31 38 43 46 37 20 3 330 310 295 282 278 283 282 278 329 325 254 255 257 255 263 251 243 253 242 255 253 251 267
276 291 299 311 322 332 341 347 348 352 353 6 15 18 20 29 40 47 49 29 11 17 4 304 285 272 258 297 314 310 325 257 227 213 214 228 223 222 250 232 229 226 215
277 283 289 294 305 314 327 333 336 337 342 347 342 340 345 357 9 20 28 38 27 27 32 46 121 250 183 117 112 100 188 201 188 174 171 176 209 213 212 227 241 241 254
277 277 281 286 291 298 305 317 324 326 327 330 331 325 319 317 319 320 319 320 320 329 334 2 27 55 58 59 78 75 98 145 198 202 214 231 271 267 258 249 259 274 281
276 271 275 280 281 286 293 302 313 316 316 316 317 314 312 309 304 299 297 292 287 283 283 292 303 303 332 33 144 121 71 324 322 331 314 309 314 300 267 258 260 269 277
275 274 270 274 279 280 286 295 300 305 309 311 311 312 312 310 305 300 294 286 282 279 277 278 281 291 298 299 334 360 356 354 337 334 344 343 344 341 336 336 328 318 310
273 270 271 275 279 278 281 285 288 292 299 303 305 305 305 305 303 302 300 295 289 281 278 274 271 269 274 280 292 329 338 338 340 345 342 343 341 338 336 331 326 322 321
272 270 272 275 280 278 278 280 282 285 289 291 296 298 297 296 297 295 295 295 293 292 288 278 272 272 274 278 287 316 335 330 329 327 320 319 320 320 319 318 314 310 310